LiveATC.Net - Listen to live air traffic control over the Internet!


ICAO: RODN  IATA: DNA   Airport: Kadena Air Base
City: Okinawa
Country: Japan   Continent: Asia
RODN METAR Weather: RODN 180456Z AUTO 16011KT 10SM -DZ BKN016 BKN023 OVC029 27/24 A2990 RMK AO2 DZB51 CIG 014V021 SLP130 P0000 T02740240 $
RODN Flight Activity (FlightAware)

RODN Gnd/Twr/App
Feed Status: UP   Listeners: 2
Listen in your browser - HTML5 player (in browser, HTML5)
Click here to listen with your own player (launches your MP3 player)
Archive Access: RODN Gnd/Twr/App

NOTICE

Unauthorized use prohibited. See LiveATC.net Terms of Service


Airport/ARTCC Code
Frequency Search
(e.g., 124.400, 128.75)
Site-wide search
 


Browse LiveATC Feeds
Top 50 LiveATC Feeds
LiveATC Feed Map
Bad Weather Areas

LiveATC FAQ
Offer LiveATC feed
Contact LiveATC.net
Press Inquiries

LiveATC on iPhone
LiveATC on Android

Windows Phone
Windows 8/10

LiveATC Mobile
(Mobile browser)

ATC Audio Archives
Interesting Recordings

LiveATC Forums


Home Page
About LiveATC.net
Make a Donation
Terms of Use
Privacy Policy

Canadian Air Freqs

AIRMETs/SIGMETs

FAA Airport Status
Nat'l Airspace Status
Arrival Demand Charts


Server Software By:
Icecast.org
Liquidsoap